User: anonymous   Login
Location: Unspecified
(0.0000°N, 0.0000°E)
Time: 19:54:15
(UTC+00:00)
Language:

COSMOS 2401 - Orbit

View from above orbital plane
View from above orbital plane
View from above satellite
View from above satellite

Ground track
Ground track

The orbit data is extracted from the following two-line orbital elements,

1 27869U 03037B   21025.70671902  .00000027  00000-0  11835-3 0  9997
2 27869  82.4713 121.3207 0022982  43.0500 317.2367 12.45459327792863
Epoch (UTC): 25 January 2021 16:57:40
Eccentricity: 0.0022982
inclination: 82.4713°
perigee height: 1465 km
apogee height: 1501 km
right ascension of ascending node: 121.3207°
argument of perigee: 43.0500°
revolutions per day: 12.45459327
mean anomaly at epoch: 317.2367°
orbit number at epoch: 79286

The dashed part of the orbit path shows where the satellite is in the earth's shadow,  

DLR